Torna al catalogo

STARLINK-30871

AttivoComunicazioniVLEO
NORAD 58228·PAYLOAD·🇺🇸 United States

Lanciato Nov 3, 2023 da Cape Canaveral Space Force Station

Loading…

Prossimi Passaggi (prossime 24 ore)

TLE

AggiornatoSource: CelesTrak SupGP

Epoca: Sep 14, 2026, 22:13 UTC

1 58228C 23170Y   26257.92618056  .00001499  00000+0  54283-4 0  2572
2 58228  43.0007 205.6923 0001242 256.6517 277.7976 15.27575808    13

Traccia STARLINK-30871 in tempo reale con AllMySat

Download on the App Store